Theta_e
316 316 315 315 314 313 313 314 314 313 313 313 314 314 314 314 314 314 314 315 315 315 315 315 315 315 314 310 309 316 316 318 318 317 314 310 307 304 300 303 304 302 304 308 309 309 309
319 319 318 317 316 315 314 314 314 314 314 314 314 313 313 313 313 314 314 315 315 314 315 316 315 314 313 305 314 315 314 313 314 314 313 312 308 308 303 302 301 304 304 305 309 308 308
319 319 319 318 318 316 315 315 314 314 314 314 314 313 313 313 313 314 314 314 314 314 315 315 315 315 311 305 315 316 315 313 313 312 310 313 311 306 305 301 305 303 300 303 304 308 307
320 319 318 318 317 317 317 315 314 314 314 314 314 313 312 313 313 313 314 313 314 315 314 314 314 316 306 314 317 314 314 313 314 313 312 314 312 308 306 307 302 300 299 295 302 305 307
320 320 319 318 318 317 316 316 316 315 314 314 313 311 312 312 313 313 313 313 314 315 314 315 315 313 304 313 311 313 314 309 309 310 311 312 310 305 305 299 298 299 293 294 297 305 304
320 320 320 319 318 317 316 315 316 315 315 314 313 312 311 312 312 313 313 313 316 314 315 317 315 308 310 306 312 312 314 311 307 307 307 306 304 300 301 298 291 292 294 295 295 300 303
320 320 319 319 318 316 316 316 315 316 315 314 313 312 312 312 312 312 313 316 313 312 314 306 307 306 307 312 314 310 312 308 307 304 299 302 296 293 297 299 300 298 297 295 299 302 301
319 319 318 318 317 316 315 315 315 315 315 313 312 312 312 313 312 312 316 312 312 313 305 310 309 309 310 312 306 308 312 303 302 297 300 297 292 297 300 299 298 297 295 295 299 301 300
319 318 317 316 316 316 316 314 314 314 314 312 311 311 312 312 312 313 317 314 319 316 306 307 309 308 308 311 305 306 308 306 301 297 297 294 297 298 296 294 294 295 293 294 295 299 301
318 318 316 316 315 315 315 314 314 313 314 312 311 311 312 312 309 317 312 317 319 317 303 301 305 307 309 309 303 310 311 306 301 297 298 296 300 297 295 292 295 292 298 297 296 294 291
318 316 316 315 315 314 314 313 313 313 313 311 310 311 311 308 318 312 315 319 319 315 293 301 304 313 310 304 306 305 310 305 299 297 298 295 296 295 293 295 296 293 297 296 295 294 295
317 316 316 315 314 314 313 312 312 313 312 310 310 310 311 315 320 316 318 319 316 300 288 297 303 302 302 303 302 304 304 308 305 299 300 298 303 299 297 298 297 298 296 296 296 295 289
316 316 316 316 315 313 313 312 312 312 311 310 309 309 312 318 310 318 319 315 301 291 299 296 297 301 301 298 300 300 298 297 294 290 292 295 296 300 300 295 298 296 293 287 286 287 287
316 316 316 316 315 313 313 312 312 311 310 309 307 307 314 317 317 318 316 306 290 294 295 300 299 300 295 299 299 300 298 294 299 298 292 290 288 296 300 297 294 295 294 288 282 285 289
316 316 316 316 314 313 313 312 311 310 309 307 306 320 319 316 316 318 310 298 293 296 298 296 299 296 296 297 297 297 296 295 298 300 291 290 289 298 299 300 299 294 291 296 291 294 290
315 315 315 315 314 313 313 312 311 310 309 306 313 316 315 317 318 316 305 292 297 299 300 299 294 296 292 296 295 295 295 299 297 299 301 295 289 296 297 299 299 296 298 290 292 284 284
315 315 314 314 314 313 312 312 311 310 308 306 314 310 314 318 317 309 299 297 298 301 301 298 296 296 296 294 296 293 293 297 299 298 301 297 294 293 296 293 292 294 293 294 294 292 286
315 314 314 315 314 313 312 311 311 310 306 308 313 304 315 316 305 304 300 299 298 300 303 300 301 299 296 296 296 292 292 294 299 299 293 297 295 290 293 298 299 297 295 295 289 288 291
314 314 314 314 314 312 311 311 311 309 307 307 307 307 316 314 298 300 303 302 300 299 299 298 297 300 300 297 291 291 294 298 299 297 294 298 292 288 290 294 297 294 297 297 296 295 290
314 314 314 314 314 313 311 310 310 309 307 310 307 301 305 307 307 302 300 301 298 301 300 299 298 301 298 296 298 293 293 296 299 298 300 299 296 292 288 290 295 289 293 296 294 290 290
314 314 314 314 314 313 312 311 310 308 307 310 305 300 305 298 301 302 303 301 299 298 301 301 299 299 298 293 294 292 295 293 295 298 298 296 289 293 295 295 294 293 293 294 293 294 290
314 314 314 314 314 313 312 311 311 308 306 311 302 301 303 303 304 302 298 301 299 300 300 297 297 298 300 296 297 295 296 294 291 298 295 295 289 294 292 295 296 292 291 294 294 294 295
313 313 313 314 314 313 312 311 311 308 307 308 309 308 304 301 302 300 300 299 300 302 301 301 300 299 299 301 305 305 302 301 297 298 294 295 290 290 287 293 294 289 295 295 295 297 296
313 314 314 314 313 312 312 311 311 309 307 310 310 307 302 297 299 298 300 300 300 302 300 301 302 301 305 310 310 307 307 306 302 303 304 296 295 289 287 290 283 296 302 300 298 298 299
313 314 314 313 313 312 310 310 310 310 308 310 311 306 302 296 299 300 299 300 303 305 303 300 303 307 310 306 299 296 297 300 301 304 302 302 296 285 285 287 292 294 299 300 299 297 302
312 313 313 313 313 312 310 309 309 311 308 309 310 311 305 298 300 301 300 302 301 301 301 302 307 311 310 303 298 289 291 293 292 298 304 303 301 288 286 284 284 286 299 306 306 295 306
310 311 312 313 313 313 310 309 308 310 309 309 310 313 303 297 303 303 298 299 304 303 300 302 303 305 309 300 295 291 293 296 290 290 294 297 296 291 291 289 291 297 301 307 291 297 307
309 310 311 311 312 312 310 308 308 309 310 309 309 310 303 298 300 304 305 303 303 304 299 303 301 305 302 298 296 293 293 295 292 296 293 292 289 290 289 289 286 300 298 294 298 302 307
309 309 310 310 311 311 309 308 307 308 309 308 305 310 308 298 298 305 306 308 307 307 305 304 302 301 305 300 299 299 294 294 293 287 299 291 291 287 289 290 298 299 299 301 303 303 310
Wind_Speed
17 17 18 18 18 18 17 17 17 17 17 16 16 15 15 15 14 14 14 14 15 15 14 14 12 11 13 9 6 10 6 12 14 6 10 9 10 11 16 15 17 20 23 22 20 20 18
17 18 18 19 18 17 17 17 17 17 16 16 15 16 15 15 15 14 14 13 13 14 13 11 9 9 10 0 4 0 2 5 11 9 8 9 10 10 14 16 16 17 21 16 21 22 23
18 18 19 18 18 18 18 18 18 18 17 16 16 15 16 16 16 15 14 12 12 13 9 4 6 10 8 8 1 3 5 5 6 9 11 9 8 10 8 13 16 15 21 16 26 21 26
17 17 19 20 21 20 21 21 20 19 18 18 17 17 17 16 16 16 15 12 13 8 2 4 7 10 3 2 7 8 4 7 3 8 12 7 7 14 13 16 7 15 19 18 23 25 22
18 16 17 18 17 20 22 20 20 20 20 19 18 19 18 17 16 15 14 12 10 6 6 8 10 8 5 6 7 4 4 7 2 5 10 4 12 14 13 14 16 19 16 24 25 29 27
20 17 17 18 18 19 20 23 21 21 21 21 19 18 17 16 16 15 13 11 8 7 10 10 8 8 7 7 9 6 2 7 6 4 9 12 12 15 13 14 16 10 22 20 23 23 27
19 20 19 21 20 21 20 21 24 23 22 22 21 19 17 16 14 14 14 7 6 9 12 7 6 5 3 9 4 1 1 5 7 7 12 7 11 14 16 12 23 12 15 13 12 17 22
19 21 22 22 24 22 22 22 24 24 24 23 23 21 18 14 13 14 9 10 10 8 9 7 4 4 4 5 10 4 2 9 7 13 6 7 12 16 8 10 15 13 14 16 15 10 7
20 21 23 23 23 23 23 25 25 25 25 24 24 22 18 14 12 7 5 9 9 3 9 9 1 6 5 8 9 6 4 10 12 13 10 12 12 7 7 13 12 14 17 16 17 11 16
19 21 23 23 25 26 27 27 26 28 26 25 25 23 17 11 6 7 9 8 5 2 6 6 7 4 4 10 2 7 9 10 13 14 11 13 16 13 9 9 18 15 15 13 14 11 13
19 22 21 23 24 26 26 28 28 29 27 27 26 24 16 7 11 9 9 8 5 6 4 7 2 3 8 9 11 4 3 7 16 13 12 12 8 8 13 13 11 15 7 11 15 15 17
20 22 21 22 26 24 25 28 28 27 27 29 27 23 14 6 10 10 7 4 6 8 5 7 11 17 14 5 1 4 5 8 11 13 16 20 14 12 11 9 6 12 12 15 15 14 14
20 20 20 22 23 27 26 27 28 28 28 30 28 21 10 9 9 10 7 7 7 5 15 10 20 18 14 12 10 3 9 13 7 8 13 16 19 18 12 14 12 12 15 11 11 12 13
17 18 19 21 22 24 25 26 29 30 30 32 30 18 9 4 9 8 8 11 6 12 12 18 16 16 7 9 11 16 15 15 13 12 12 14 9 18 15 19 14 11 15 10 7 11 14
15 17 18 19 21 24 26 27 29 30 32 32 31 7 5 8 8 7 10 4 6 10 15 16 18 11 12 9 7 10 19 17 12 11 9 7 5 1 11 16 19 16 15 14 10 16 12
14 16 17 17 19 21 24 27 29 30 33 31 9 7 5 10 6 7 5 3 8 6 13 12 16 8 17 19 11 16 13 7 10 6 12 9 9 6 11 8 17 16 11 10 8 10 13
14 15 16 17 17 20 22 24 27 29 33 36 6 6 6 10 5 7 5 7 12 11 10 9 15 17 18 16 13 15 7 14 10 10 12 12 9 7 9 11 15 13 15 15 14 13 11
14 14 15 17 17 19 20 22 24 26 31 12 7 6 7 10 9 7 5 9 5 11 13 13 11 16 16 17 17 8 7 4 8 10 6 10 8 11 17 12 15 10 16 18 12 17 14
14 15 15 15 16 16 19 21 24 23 18 10 8 7 6 8 7 8 12 14 6 11 13 13 11 15 18 18 10 8 7 4 6 4 6 4 8 9 12 6 7 14 18 19 19 18 18
13 14 14 15 15 15 16 19 22 25 22 9 7 6 5 7 2 12 14 11 12 9 12 11 17 16 16 18 15 11 11 5 9 10 14 5 11 13 13 8 5 15 25 24 23 16 18
13 13 13 14 15 13 15 18 20 23 26 9 6 6 6 8 11 14 14 14 16 15 9 16 10 16 20 19 15 4 7 5 10 14 7 7 8 16 20 24 14 18 25 32 28 25 24
13 13 13 11 12 13 13 15 17 20 29 4 8 7 7 14 10 13 4 11 14 17 18 17 16 20 21 19 17 25 13 1 6 6 9 5 5 13 22 21 21 14 20 30 31 26 27
15 14 13 12 10 10 10 13 14 15 19 6 7 6 7 10 10 12 9 13 19 18 10 11 17 20 20 22 22 18 4 7 9 7 11 6 6 4 7 6 8 11 20 28 27 31 28
16 15 14 13 11 8 8 10 11 8 10 7 6 9 8 11 12 14 19 16 19 17 18 19 15 16 19 21 20 5 8 10 11 14 12 7 11 3 4 5 7 5 3 22 29 27 26
16 16 15 14 11 8 7 8 9 5 7 9 6 6 8 11 14 13 19 18 19 16 14 14 10 13 16 19 11 6 3 5 7 14 15 17 12 2 3 5 7 5 9 8 12 18 21
17 16 15 15 12 9 8 7 7 6 6 7 5 6 6 9 3 16 14 18 14 13 12 15 12 13 15 11 7 4 5 5 6 9 4 8 17 3 3 3 3 3 14 21 12 10 8
20 17 16 15 14 12 9 8 8 6 8 7 4 1 4 8 12 15 15 12 13 11 11 16 18 11 13 11 5 3 5 8 6 9 13 11 9 6 8 1 3 15 19 17 8 2 19
17 17 18 16 14 13 10 9 8 8 8 8 4 5 4 6 16 10 10 16 13 13 13 13 11 2 8 9 7 5 2 4 5 11 9 7 7 5 6 6 5 22 6 4 11 17 20
16 17 18 17 16 12 9 10 8 8 7 11 5 2 2 5 12 24 25 23 22 23 15 8 12 10 6 7 7 7 6 3 8 5 11 2 2 3 3 4 6 10 9 13 13 16 10
Wind_Direction
9 8 6 4 1 358 356 353 353 350 346 343 339 336 331 327 324 321 318 316 314 314 308 302 300 300 286 220 60 117 210 225 265 270 262 262 270 253 256 258 248 235 253 237 253 263 274
9 7 3 1 357 354 354 353 351 348 342 339 336 333 328 323 319 317 316 312 310 314 302 296 290 286 256 39 38 20 290 272 258 262 259 273 274 308 293 278 260 264 247 255 253 241 255
12 10 4 359 358 356 353 352 350 346 342 338 334 331 327 321 317 315 316 316 312 307 310 280 253 256 259 61 301 264 260 285 299 269 268 231 289 270 266 268 250 263 267 249 238 234 242
1 3 3 1 358 355 352 350 348 345 342 338 335 331 327 321 316 312 313 314 306 297 288 231 243 260 20 100 329 253 318 275 240 260 255 310 262 273 272 266 261 255 247 249 234 234 238
3 359 357 359 356 355 351 348 343 342 341 339 337 335 327 320 314 308 309 305 281 246 229 230 234 242 86 136 226 1 290 316 341 226 228 265 255 258 244 245 243 225 243 230 247 209 223
3 1 358 356 354 351 348 349 344 340 339 339 337 331 327 318 311 306 298 289 211 209 213 221 264 242 189 353 335 314 272 281 252 175 208 225 239 241 235 242 244 254 220 242 223 227 207
359 1 1 359 356 353 350 347 346 341 339 338 338 332 325 318 309 301 299 183 226 197 214 321 351 311 311 348 235 174 212 242 240 223 244 236 251 243 227 282 274 282 288 253 241 218 205
354 360 360 358 358 354 351 349 347 342 339 337 338 334 328 315 303 296 276 360 5 312 294 199 291 273 259 333 301 227 187 248 204 261 259 219 248 289 274 229 261 282 273 268 280 270 228
351 357 359 358 352 349 351 352 349 345 338 338 337 336 328 315 310 272 296 16 325 301 256 162 256 313 3 297 318 309 279 261 267 269 249 261 258 214 293 274 253 243 255 258 264 238 231
352 358 359 353 352 350 348 347 346 345 339 338 338 336 326 313 275 334 27 350 321 317 259 139 168 142 281 271 279 249 283 276 273 271 276 258 251 255 229 231 271 257 229 261 286 269 242
355 1 357 356 354 352 349 347 345 343 339 336 338 334 323 263 314 3 345 344 354 228 282 16 356 77 247 262 319 168 311 276 274 278 269 254 278 237 242 247 218 271 358 277 246 245 258
359 2 354 357 357 352 347 347 341 341 340 334 337 332 323 221 235 15 328 335 237 232 7 334 357 334 325 10 315 256 238 269 275 258 262 258 247 267 261 306 228 270 276 248 248 245 233
360 350 346 349 353 355 350 342 340 341 340 334 333 327 293 290 339 337 323 261 251 21 343 359 335 333 327 335 338 312 281 257 246 246 259 234 235 236 244 256 231 229 252 240 211 214 238
357 344 344 346 346 346 346 344 341 340 340 337 327 321 213 303 331 316 287 261 312 11 334 337 327 313 328 4 335 327 306 273 257 244 283 274 231 214 198 246 246 234 244 259 300 198 221
345 343 345 344 343 344 343 344 343 341 339 339 313 209 245 3 324 290 277 316 4 337 327 325 317 330 329 342 315 307 313 299 268 203 239 311 321 314 195 216 241 226 232 266 299 270 268
342 337 339 338 339 342 343 343 343 342 339 334 318 282 66 330 320 276 298 283 352 351 325 320 312 328 317 317 335 335 321 324 309 224 246 297 291 226 173 234 227 235 288 243 232 275 251
332 338 336 335 336 338 342 343 343 342 340 321 259 288 46 337 300 272 351 326 325 343 348 324 319 313 314 337 317 322 284 314 317 321 261 274 254 214 190 210 228 197 230 236 260 255 280
327 332 334 335 336 338 339 342 341 344 339 331 296 314 35 330 288 350 342 336 331 316 320 314 291 298 323 327 310 283 251 244 303 332 286 278 303 269 231 230 238 264 221 229 232 229 258
321 329 331 333 333 337 339 341 338 339 1 317 323 294 120 330 11 338 336 321 296 303 319 309 293 309 312 311 310 237 270 262 285 257 241 266 231 262 258 236 246 232 217 252 243 256 263
312 321 326 328 330 331 337 342 339 334 337 310 313 331 347 298 145 350 336 320 326 325 320 311 306 289 289 326 325 284 274 263 239 236 238 250 257 250 270 282 190 217 257 224 236 235 239
302 310 318 324 325 324 331 338 339 332 329 305 346 6 26 312 333 327 302 310 318 332 323 306 285 310 335 318 320 263 273 260 257 242 214 221 252 262 269 267 223 225 222 238 227 228 229
295 300 306 315 319 324 325 331 341 334 328 268 335 338 338 287 312 310 331 323 321 324 318 301 301 312 311 306 326 320 329 214 262 139 197 192 252 269 277 275 272 216 211 248 226 225 231
295 296 297 303 309 317 318 323 339 341 333 331 5 333 272 285 318 317 336 321 309 308 311 298 303 309 304 340 322 312 190 229 230 278 198 224 226 235 254 317 295 246 224 216 206 216 228
294 290 289 293 299 306 316 315 332 336 341 318 2 306 299 302 316 331 310 309 315 312 301 296 294 300 324 323 310 263 241 252 203 238 242 238 247 210 260 260 230 27 320 195 221 209 216
293 290 289 286 290 286 309 311 324 295 310 303 321 311 312 300 313 307 331 316 309 301 317 305 309 326 322 303 306 328 215 268 290 230 231 226 251 223 256 229 337 13 341 300 235 212 211
296 292 287 283 277 271 287 295 309 291 265 279 323 321 297 313 334 325 317 303 317 323 319 324 321 338 305 293 335 333 321 324 301 318 291 252 225 128 241 252 209 276 308 277 277 248 237
307 298 292 284 277 270 267 276 287 289 217 272 296 174 279 275 270 334 305 314 305 308 299 299 343 312 320 331 6 336 326 6 318 309 339 339 336 313 304 308 78 351 345 120 168 50 325
299 299 294 287 277 264 258 261 265 271 228 237 299 180 245 267 294 271 290 291 291 282 285 350 304 355 335 338 338 354 306 2 290 315 310 345 322 356 326 353 10 349 11 8 314 300 289
291 293 293 288 280 253 245 260 258 254 266 208 267 190 226 239 275 300 283 268 255 262 282 279 308 294 340 336 351 322 344 352 318 290 350 357 69 292 296 301 2 323 336 311 306 291 288